Погода в Беникасиме

Испания     40°03′18″N   0°03′50″E
темп.,
°C
ветер,
м/с
пор.,
м/с
влажн.,
%
обл.,
%
осадки,
мм/ч
давл.,
гПа
погр.,
м
7 марта, вс
вс701:00+11с237725 0.1 1023276
04:00+12с2482100 0.2 1021350
07:00+11ссв2579100 0.2 1021493
10:00+12ссв3578100 0.1 1020531
13:00+13св5675100 0.2 1019638
16:00+13всв4573100 0.1 1017650
19:00+12в3484100 0.3 1016419
22:00+11ссв1285100 0.1 1017273
8 марта, пн
пн801:00+11св1285100 0.2 1016240
04:00+11с1282100 0.4 1014214
07:00+11св2276100 0.4 1014222
10:00+13св246899 0.1 1015689
13:00+14всв566682 0.3 1015750
16:00+14всв786485 0.4 1014925
19:00+12св466984 0.4 1015572
22:00+12ссз1164100 0.0 1017431
9 марта, вт
вт901:00+12ссз2464100 0.0 1018638
04:00+11сз115794 0.0 101859
07:00+10ссз125091 0.0 1018116
10:00+13з124755 0.0 1019344
13:00+15ююв434528 0.0 1019591
16:00+15ююв44490 0.0 1017571
19:00+13ю225733 0.0 1018464
22:00+13зюз1260100 0.0 1021371
10 марта, ср
ср1001:00+12ююз116184 0.0 102242
04:00+11сз11640 0.0 102137
07:00+10с11660 0.0 102332
10:00+12вюв116012 0.0 1024403
13:00+14юв325517 0.0 1024629
16:00+14ююв33580 0.0 1023435
19:00+13ю22690 0.0 1023414
22:00+12зюз12760 0.0 1026198
11 марта, чт
чт1101:00+12з11750 0.0 102633
04:00+11з12640 0.0 102534
07:00+11з12435 0.0 102533
10:00+14ююз112953 0.0 1025124
13:00+16ююв323568 0.0 1025282
16:00+17ююв234087 0.0 1022380
19:00+16в115487 0.0 1022238
22:00+15с2250100 0.0 102236